Cloud_Cover
100 100 94 100 100 90 99 90 100 72 92 77 100 85 64 56 78 15 2 24 34 5 5 5 3 0 4 1 4 6 3 1 0 0 0 0 3 5 6 4 5 5 32 100 100 100 100 59 100
100 95 98 99 99 86 93 73 100 74 63 87 100 68 24 2 1 0 12 13 5 12 6 5 20 5 5 5 2 4 4 13 11 1 0 0 0 0 2 2 2 0 2 4 16 87 37 5 100
100 84 98 78 99 100 95 100 100 75 23 96 100 76 17 16 1 1 2 6 70 41 4 5 49 49 12 87 5 4 4 15 9 1 3 20 1 2 0 4 1 4 5 6 62 99 90 100 100
100 100 83 97 100 97 91 100 100 100 40 100 100 100 60 4 0 2 0 80 67 76 10 64 20 6 51 100 2 5 5 5 5 9 2 1 17 9 0 1 6 0 1 8 100 82 100 95 100
100 36 94 98 100 69 83 88 100 91 95 64 100 100 89 4 0 0 7 63 87 97 0 4 4 5 78 66 6 3 44 9 88 100 5 5 7 23 0 0 1 0 5 5 58 88 98 100 97
35 91 100 100 98 80 89 99 100 100 53 69 57 98 61 8 10 5 21 78 100 80 80 7 1 5 66 8 5 0 4 6 76 96 52 9 5 6 0 0 5 5 5 6 80 38 100 94 98
84 34 100 100 96 91 88 100 95 100 33 100 35 22 74 10 42 2 67 67 91 88 51 10 12 5 5 5 1 4 3 80 100 87 54 0 0 0 2 0 1 5 5 83 100 100 98 99 90
98 100 100 100 100 95 78 100 100 100 100 100 93 9 19 5 6 20 47 93 100 59 47 52 19 91 39 15 4 4 5 60 100 100 100 7 0 1 0 0 2 5 12 100 68 100 99 83 17
53 100 100 100 100 91 100 100 100 100 98 100 98 50 5 5 4 34 29 93 23 100 99 81 53 68 49 10 5 5 4 0 1 100 92 2 100 49 57 0 0 0 4 5 5 5 57 5 5
72 100 83 100 100 100 98 69 100 100 100 100 88 86 3 5 32 15 20 55 75 100 100 100 100 11 84 78 41 92 86 54 64 79 46 39 24 83 0 0 0 3 4 3 5 52 98 99 44
89 100 72 80 100 100 93 97 97 100 100 100 100 85 4 0 5 30 9 29 77 44 99 6 91 100 100 5 11 95 100 38 22 25 100 62 58 0 2 0 0 0 0 41 29 100 93 95 51
90 14 100 6 100 100 100 43 95 100 100 100 100 59 2 2 1 5 19 50 11 38 100 8 31 82 70 5 100 79 80 100 80 17 13 68 93 85 97 39 0 51 100 36 100 54 100 19 14
90 71 68 87 100 100 100 100 100 82 100 100 100 11 5 2 0 0 10 22 0 31 38 2 33 5 7 62 31 100 33 100 8 51 100 100 93 58 100 52 30 43 32 64 82 74 26 85 28
14 69 100 84 100 100 100 100 100 100 100 100 63 5 0 0 0 0 14 16 5 5 1 2 0 9 31 75 73 58 100 53 95 98 29 37 79 100 0 50 31 56 87 100 49 97 98 57 61
48 48 23 93 100 100 100 100 100 100 100 71 100 5 0 0 0 0 4 59 4 1 0 0 0 0 62 5 5 99 70 99 66 61 95 7 26 17 26 100 100 100 27 0 1 5 94 83 19
0 8 25 12 100 94 100 100 100 100 100 43 13 10 1 1 1 4 0 4 24 4 0 0 9 6 1 12 99 100 93 67 100 22 100 43 22 1 83 28 73 7 1 98 82 75 48 75 42
0 36 94 18 36 99 84 100 100 100 100 74 90 26 4 48 41 1 0 0 19 69 5 0 0 13 10 2 25 100 27 46 61 84 98 31 19 2 90 100 16 0 100 99 100 54 66 40 32
5 28 100 62 45 100 89 100 100 100 100 100 80 86 51 97 99 3 0 0 48 64 8 2 0 6 10 1 26 97 40 42 70 42 100 3 86 40 4 95 4 0 100 22 98 26 48 76 31
81 70 100 100 12 13 97 100 100 94 100 100 67 96 100 100 100 43 37 0 1 6 14 0 0 3 7 0 5 100 98 1 93 42 12 39 12 12 0 59 0 41 99 98 0 0 1 56 0
63 96 100 80 49 100 100 99 100 100 100 100 100 100 90 100 100 68 100 5 0 3 9 3 0 0 5 0 74 82 47 36 100 58 17 90 8 0 1 52 1 71 46 0 0 4 31 42 43
24 98 52 4 89 100 100 53 100 100 100 100 100 100 98 100 100 98 100 25 0 0 42 5 0 1 1 96 84 39 20 31 15 10 41 29 45 4 55 1 88 14 54 4 0 0 54 57 0
4 11 86 69 5 69 59 100 100 55 58 81 97 100 100 100 100 100 100 42 12 0 0 0 0 2 0 18 20 1 0 30 99 7 7 7 79 88 12 1 0 0 100 96 4 0 58 26 30
8 48 26 4 2 72 88 96 100 95 52 93 74 96 100 100 69 100 100 100 38 8 0 0 0 0 4 0 55 0 93 95 100 97 23 10 2 71 33 0 0 0 12 2 98 16 0 50 46
89 94 7 5 5 80 16 12 88 100 100 100 95 89 62 92 54 44 100 100 92 17 4 0 0 0 0 0 0 0 52 100 92 31 14 0 0 6 78 36 0 0 91 0 1 0 0 0 81
98 23 5 1 0 4 22 17 100 97 55 17 37 88 100 99 100 100 9 100 98 30 0 2 0 0 0 0 0 0 0 1 21 15 23 96 49 88 5 48 0 8 1 0 23 0 43 0 29
5 5 2 2 0 0 83 100 97 100 94 100 47 40 33 13 94 86 84 47 99 100 13 0 0 0 0 0 0 0 0 0 0 20 97 25 100 95 0 0 1 4 9 23 6 0 0 0 0
26 1 8 94 13 6 48 6 98 84 55 97 100 100 100 49 82 46 27 28 100 76 25 0 0 0 0 0 0 0 0 0 0 30 4 15 0 100 2 0 18 1 0 7 19 28 0 73 0
0 3 36 16 99 86 69 0 1 99 72 96 100 100 100 100 13 36 99 82 100 97 60 94 1 0 1 2 6 1 0 2 0 0 0 0 9 0 98 11 0 0 1 29 21 30 4 0 0
0 0 8 85 94 100 100 70 21 2 10 96 100 100 100 100 100 99 74 94 98 65 83 37 45 18 13 2 14 9 100 13 4 0 0 0 0 0 20 21 18 20 4 7 5 5 78 7 3
0 3 5 5 5 79 100 86 100 90 32 36 100 100 100 100 100 83 74 34 90 27 100 100 92 13 90 0 94 14 20 81 14 7 2 0 0 0 0 14 21 16 17 0 1 5 25 27 18